{"data":{"norad_id":65143,"epoch":"2026-09-21T13:45:40.305888Z","epoch_age_seconds":72845,"freshness":"FRESH","line1":"1 65143U 25171M   26264.57338317  .00002069  00000+0  30034-3 0  9991","line2":"2 65143  51.9020  19.4594 0000489 108.0026 252.0990 14.79936246 61799","mean_motion":14.79936246,"eccentricity":4.89e-5,"inclination_deg":51.902,"raan_deg":19.4594,"arg_perigee_deg":108.0026,"mean_anomaly_deg":252.099,"bstar":0.00030034,"rev_number":6179,"period_min":97.301488756158,"perigee_km":629.18270768559,"apogee_km":629.86805706658,"semimajor_km":7007.6623823761,"source":"CELESTRAK","updated_at":"2026-09-22T09:00:30.154214Z"}}